When you browse on this site, cookies collect data to enhance your experience and personalize the content and advertising you see.
Visit our Privacy Policy to learn more. By continuing to use the site, you agree to this use of cookies and data.
  • In Sweden
  • List of Countries
  • For 7 days
  • Water Temperature
  • Weather Map
  • Weather Widgets
  • user-avatar
    Login

    Hourly Weather Agrate Brianza

    Today, 15 November, Friday

    Time Temperature Precipitation Wind Pressure Humidity
    00:00 +8°C° 2.7 mm 4 mps 737 mmHg 81%
    01:00 +7°C° 2.7 mm 4 mps 736 mmHg 87%
    02:00 +8°C° 2.2 mm 5 mps 735 mmHg 85%
    03:00 +8°C° 2.2 mm 6 mps 735 mmHg 82%
    04:00 +9°C° 2.2 mm 8 mps 734 mmHg 79%
    05:00 +9°C° 2.1 mm 7 mps 734 mmHg 82%
    06:00 +9°C° 2.1 mm 7 mps 734 mmHg 86%
    07:00 +9°C° 2.1 mm 7 mps 735 mmHg 89%
    08:00 +9°C° 0.7 mm 5 mps 735 mmHg 89%
    09:00 +10°C° 0.7 mm 4 mps 736 mmHg 89%
    10:00 +10°C° 0.7 mm 3 mps 736 mmHg 89%
    11:00 +10°C° 0.4 mm 3 mps 736 mmHg 86%
    12:00 +12°C° 0.4 mm 2 mps 737 mmHg 82%
    13:00 +12°C° 0.4 mm 2 mps 737 mmHg 79%
    14:00 +12°C° 0.4 mm 2 mps 737 mmHg 80%
    15:00 +10°C° 0.4 mm 2 mps 737 mmHg 81%
    16:00 +10°C° 0.4 mm 2 mps 737 mmHg 83%
    17:00 +10°C° 0.2 mm 1 mps 737 mmHg 84%
    18:00 +10°C° 0.2 mm 1 mps 738 mmHg 85%
    19:00 +9°C° 0.2 mm 1 mps 738 mmHg 86%
    20:00 +9°C° 0 mm 1 mps 739 mmHg 87%
    21:00 +9°C° 0 mm 1 mps 739 mmHg 87%
    22:00 +9°C° 0 mm 1 mps 739 mmHg 87%
    23:00 +9°C° 0.1 mm 1 mps 740 mmHg 85%

    Tomorrow, 16 November, Saturday

    Time Temperature Precipitation Wind Pressure Humidity
    00:00 +8°C° 0.1 mm 1 mps 740 mmHg 84%
    01:00 +7°C° 0.1 mm 2 mps 740 mmHg 82%
    02:00 +7°C° 1.1 mm 2 mps 740 mmHg 83%
    03:00 +8°C° 1.1 mm 1 mps 741 mmHg 85%
    04:00 +8°C° 1.1 mm 1 mps 741 mmHg 86%
    05:00 +8°C° 0.9 mm 1 mps 741 mmHg 86%
    06:00 +8°C° 0.9 mm 1 mps 742 mmHg 85%
    07:00 +7°C° 0.9 mm 2 mps 743 mmHg 85%
    08:00 +9°C° 0 mm 1 mps 743 mmHg 83%
    09:00 +9°C° 0 mm 1 mps 744 mmHg 80%
    10:00 +9°C° 0 mm 1 mps 744 mmHg 78%
    11:00 +10°C° 0.1 mm 1 mps 744 mmHg 77%
    12:00 +10°C° 0.1 mm 1 mps 744 mmHg 77%
    13:00 +10°C° 0.1 mm 1 mps 744 mmHg 76%
    14:00 +10°C° 0.1 mm 1 mps 744 mmHg 77%
    15:00 +10°C° 0.1 mm 1 mps 744 mmHg 77%
    16:00 +10°C° 0.1 mm 1 mps 744 mmHg 78%
    17:00 +10°C° 0 mm 1 mps 744 mmHg 78%
    18:00 +9°C° 0 mm 1 mps 744 mmHg 77%
    19:00 +8°C° 0 mm 2 mps 744 mmHg 77%
    20:00 +9°C° 0.1 mm 1 mps 743 mmHg 77%
    21:00 +9°C° 0.1 mm 1 mps 743 mmHg 76%
    22:00 +9°C° 0.1 mm 1 mps 742 mmHg 76%
    23:00 +9°C° 0.4 mm 1 mps 742 mmHg 78%

    Day after tomorrow, 17 November, Sunday

    Time Temperature Precipitation Wind Pressure Humidity
    00:00 +8°C° 0.4 mm 1 mps 741 mmHg 80%
    01:00 +8°C° 0.4 mm 1 mps 740 mmHg 82%
    02:00 +8°C° 1.6 mm 1 mps 739 mmHg 83%
    03:00 +7°C° 1.6 mm 2 mps 738 mmHg 83%
    04:00 +7°C° 1.6 mm 3 mps 737 mmHg 84%
    05:00 +7°C° 2.3 mm 3 mps 736 mmHg 84%
    06:00 +7°C° 2.3 mm 3 mps 736 mmHg 84%
    07:00 +7°C° 2.3 mm 3 mps 735 mmHg 85%
    08:00 +7°C° 1.9 mm 2 mps 735 mmHg 86%
    09:00 +7°C° 1.9 mm 2 mps 734 mmHg 87%
    10:00 +9°C° 1.9 mm 1 mps 734 mmHg 88%
    11:00 +8°C° 0.4 mm 2 mps 734 mmHg 89%
    12:00 +9°C° 0.4 mm 2 mps 734 mmHg 90%
    13:00 +9°C° 0.4 mm 3 mps 735 mmHg 90%
    14:00 +8°C° 0.6 mm 2 mps 735 mmHg 90%
    15:00 +8°C° 0.6 mm 2 mps 735 mmHg 89%
    16:00 +8°C° 0.6 mm 1 mps 735 mmHg 88%
    17:00 +8°C° 0.1 mm 1 mps 736 mmHg 87%
    18:00 +8°C° 0.1 mm 1 mps 737 mmHg 86%
    19:00 +8°C° 0.1 mm 1 mps 737 mmHg 85%
    20:00 +8°C° 0 mm 1 mps 738 mmHg 84%
    21:00 +7°C° 0 mm 1 mps 738 mmHg 84%
    22:00 +7°C° 0 mm 1 mps 739 mmHg 83%
    23:00 +7°C° 0 mm 1 mps 739 mmHg 83%

    18 November, Monday

    Time Temperature Precipitation Wind Pressure Humidity
    00:00 +7°C° 0 mm 1 mps 739 mmHg 84%
    01:00 +6°C° 0 mm 0 mps 740 mmHg 84%
    02:00 +7°C° 0.5 mm 1 mps 740 mmHg 85%
    03:00 +7°C° 0.5 mm 1 mps 741 mmHg 86%
    04:00 +7°C° 0.5 mm 1 mps 741 mmHg 88%
    05:00 +7°C° 0.4 mm 1 mps 742 mmHg 88%
    06:00 +7°C° 0.4 mm 1 mps 742 mmHg 89%
    07:00 +7°C° 0.4 mm 1 mps 743 mmHg 89%
    08:00 +7°C° 0.4 mm 1 mps 743 mmHg 88%
    09:00 +8°C° 0.4 mm 1 mps 743 mmHg 87%
    10:00 +8°C° 0.4 mm 1 mps 744 mmHg 85%
    11:00 +9°C° 0.2 mm 1 mps 744 mmHg 81%
    12:00 +9°C° 0.2 mm 1 mps 744 mmHg 78%
    13:00 +10°C° 0.2 mm 1 mps 744 mmHg 74%
    14:00 +10°C° 0.2 mm 1 mps 744 mmHg 76%
    15:00 +9°C° 0.2 mm 0 mps 744 mmHg 77%
    16:00 +8°C° 0.2 mm 0 mps 744 mmHg 79%
    17:00 +8°C° 0.3 mm 0 mps 745 mmHg 80%
    18:00 +9°C° 0.3 mm 1 mps 745 mmHg 82%
    19:00 +8°C° 0.3 mm 1 mps 746 mmHg 83%
    20:00 +8°C° 0.4 mm 1 mps 746 mmHg 83%
    21:00 +8°C° 0.4 mm 1 mps 746 mmHg 83%
    22:00 +8°C° 0.4 mm 1 mps 746 mmHg 84%
    23:00 +6°C° 0.2 mm 2 mps 746 mmHg 82%

    19 November, Tuesday

    Time Temperature Precipitation Wind Pressure Humidity
    00:00 +6°C° 0.2 mm 2 mps 746 mmHg 81%
    01:00 +6°C° 0.2 mm 2 mps 746 mmHg 79%
    02:00 +6°C° 0.1 mm 2 mps 746 mmHg 78%
    03:00 +6°C° 0.1 mm 2 mps 746 mmHg 76%
    04:00 +6°C° 0.1 mm 2 mps 746 mmHg 75%
    05:00 +5°C° 0 mm 2 mps 746 mmHg 73%
    06:00 +6°C° 0 mm 1 mps 746 mmHg 72%
    07:00 +6°C° 0 mm 1 mps 746 mmHg 71%
    08:00 +7°C° 0 mm 1 mps 746 mmHg 69%
    09:00 +6°C° 0 mm 2 mps 745 mmHg 67%
    10:00 +7°C° 0 mm 2 mps 745 mmHg 65%
    11:00 +8°C° 0 mm 2 mps 745 mmHg 63%
    12:00 +8°C° 0 mm 2 mps 744 mmHg 60%
    13:00 +9°C° 0 mm 2 mps 744 mmHg 58%
    14:00 +9°C° 0 mm 2 mps 744 mmHg 60%
    15:00 +9°C° 0 mm 2 mps 744 mmHg 63%
    16:00 +9°C° 0 mm 1 mps 744 mmHg 65%
    17:00 +9°C° 0 mm 1 mps 744 mmHg 68%
    18:00 +8°C° 0 mm 1 mps 745 mmHg 71%
    19:00 +7°C° 0 mm 1 mps 745 mmHg 73%
    20:00 +7°C° 0 mm 1 mps 746 mmHg 73%
    21:00 +7°C° 0 mm 1 mps 746 mmHg 73%
    22:00 +6°C° 0 mm 1 mps 746 mmHg 72%
    23:00 +6°C° 0 mm 1 mps 747 mmHg 72%

    20 November, Wednesday

    Time Temperature Precipitation Wind Pressure Humidity
    00:00 +6°C° 0 mm 1 mps 747 mmHg 72%
    01:00 +6°C° 0 mm 1 mps 747 mmHg 71%
    02:00 +5°C° 0 mm 1 mps 747 mmHg 71%
    03:00 +5°C° 0 mm 1 mps 747 mmHg 71%
    04:00 +5°C° 0 mm 1 mps 747 mmHg 70%
    05:00 +5°C° 0 mm 1 mps 747 mmHg 70%
    06:00 +5°C° 0 mm 1 mps 747 mmHg 71%
    07:00 +5°C° 0 mm 1 mps 748 mmHg 71%
    08:00 +5°C° 0 mm 1 mps 748 mmHg 69%
    09:00 +5°C° 0 mm 0 mps 748 mmHg 67%
    10:00 +6°C° 0 mm 0 mps 748 mmHg 64%
    11:00 +7°C° 0 mm 0 mps 748 mmHg 63%
    12:00 +7°C° 0 mm 0 mps 748 mmHg 62%
    13:00 +9°C° 0 mm 1 mps 747 mmHg 61%
    14:00 +8°C° 0.3 mm 1 mps 747 mmHg 67%
    15:00 +8°C° 0.3 mm 1 mps 747 mmHg 72%
    16:00 +7°C° 0.3 mm 1 mps 747 mmHg 78%
    17:00 +7°C° 0.2 mm 1 mps 748 mmHg 79%
    18:00 +7°C° 0.2 mm 1 mps 748 mmHg 80%
    19:00 +7°C° 0.2 mm 1 mps 748 mmHg 82%
    20:00 +7°C° 0.2 mm 1 mps 748 mmHg 83%
    21:00 +7°C° 0.2 mm 1 mps 748 mmHg 84%
    22:00 +7°C° 0.2 mm 1 mps 749 mmHg 86%
    23:00 +7°C° 0.2 mm 1 mps 748 mmHg 86%
    Show more